• In Hungary
  • List of Countries
  • For 7 days
  • Water Temperature
  • Satellite Maps
  • Weather Map
  • News
  • Weather Widgets
  • user-avatar
    Login

    Hourly Weather Chuhuno-Krepynka

    Today, 17 December, Sunday

    Time Temperature Precipitation Wind Pressure Humidity
    00:00 +4°C° 0 mm 7 mps 756 mmHg 83%
    01:00 +4°C° 0 mm 7 mps 755 mmHg 85%
    02:00 +4°C° 0 mm 6 mps 755 mmHg 87%
    03:00 +3°C° 0 mm 6 mps 755 mmHg 88%
    04:00 +3°C° 0 mm 6 mps 755 mmHg 89%
    05:00 +3°C° 0 mm 6 mps 755 mmHg 90%
    06:00 +3°C° 0 mm 6 mps 755 mmHg 91%
    07:00 +3°C° 0 mm 6 mps 755 mmHg 91%
    08:00 +3°C° 0 mm 6 mps 755 mmHg 91%
    09:00 +3°C° 0 mm 6 mps 755 mmHg 91%
    10:00 +3°C° 0 mm 6 mps 755 mmHg 87%
    11:00 +4°C° 0 mm 6 mps 755 mmHg 83%
    12:00 +5°C° 0 mm 6 mps 755 mmHg 79%
    13:00 +5°C° 0 mm 6 mps 755 mmHg 78%
    14:00 +6°C° 0 mm 5 mps 755 mmHg 76%
    15:00 +7°C° 0 mm 5 mps 755 mmHg 75%
    16:00 +7°C° 0 mm 5 mps 755 mmHg 77%
    17:00 +6°C° 0 mm 4 mps 755 mmHg 79%
    18:00 +6°C° 0 mm 4 mps 755 mmHg 81%
    19:00 +6°C° 0 mm 5 mps 755 mmHg 81%
    20:00 +6°C° 0 mm 5 mps 755 mmHg 82%
    21:00 +6°C° 0 mm 5 mps 755 mmHg 82%
    22:00 +6°C° 0 mm 5 mps 755 mmHg 83%
    23:00 +5°C° 0 mm 6 mps 755 mmHg 84%

    Tomorrow, 18 December, Monday

    Time Temperature Precipitation Wind Pressure Humidity
    00:00 +4°C° 0 mm 6 mps 755 mmHg 85%
    01:00 +4°C° 0 mm 6 mps 755 mmHg 85%
    02:00 +4°C° 0 mm 6 mps 754 mmHg 85%
    03:00 +4°C° 0 mm 7 mps 754 mmHg 85%
    04:00 +4°C° 0.1 mm 7 mps 754 mmHg 85%
    05:00 +4°C° 0.1 mm 7 mps 754 mmHg 86%
    06:00 +4°C° 0.1 mm 7 mps 754 mmHg 87%
    07:00 +4°C° 0.1 mm 7 mps 753 mmHg 87%
    08:00 +4°C° 0.1 mm 7 mps 753 mmHg 87%
    09:00 +4°C° 0.1 mm 7 mps 753 mmHg 87%
    10:00 +5°C° 0.4 mm 7 mps 753 mmHg 85%
    11:00 +5°C° 0.4 mm 8 mps 753 mmHg 84%
    12:00 +6°C° 0.4 mm 8 mps 753 mmHg 82%
    13:00 +6°C° 0.3 mm 7 mps 753 mmHg 82%
    14:00 +6°C° 0.3 mm 7 mps 753 mmHg 81%
    15:00 +6°C° 0.3 mm 7 mps 752 mmHg 81%
    16:00 +7°C° 0 mm 6 mps 753 mmHg 82%
    17:00 +7°C° 0 mm 6 mps 753 mmHg 83%
    18:00 +7°C° 0 mm 6 mps 753 mmHg 84%
    19:00 +6°C° 0 mm 5 mps 754 mmHg 85%
    20:00 +6°C° 0 mm 5 mps 754 mmHg 85%
    21:00 +5°C° 0 mm 4 mps 754 mmHg 86%
    22:00 +5°C° 0.1 mm 4 mps 754 mmHg 86%
    23:00 +4°C° 0.1 mm 3 mps 755 mmHg 86%

    Day after tomorrow, 19 December, Tuesday

    Time Temperature Precipitation Wind Pressure Humidity
    00:00 +4°C° 0.1 mm 3 mps 755 mmHg 87%
    01:00 +4°C° 0.1 mm 3 mps 755 mmHg 87%
    02:00 +5°C° 0.1 mm 2 mps 755 mmHg 87%
    03:00 +4°C° 0.1 mm 2 mps 756 mmHg 87%
    04:00 +4°C° 0.1 mm 2 mps 756 mmHg 87%
    05:00 +4°C° 0.1 mm 2 mps 756 mmHg 87%
    06:00 +4°C° 0.1 mm 2 mps 756 mmHg 86%
    07:00 +3°C° 0 mm 2 mps 756 mmHg 86%
    08:00 +4°C° 0 mm 1 mps 757 mmHg 85%
    09:00 +4°C° 0 mm 1 mps 757 mmHg 85%
    10:00 +3°C° 0 mm 2 mps 757 mmHg 80%
    11:00 +4°C° 0 mm 2 mps 758 mmHg 75%
    12:00 +4°C° 0 mm 2 mps 758 mmHg 70%
    13:00 +4°C° 0 mm 2 mps 758 mmHg 68%
    14:00 +4°C° 0 mm 2 mps 758 mmHg 66%
    15:00 +4°C° 0 mm 2 mps 758 mmHg 64%
    16:00 +4°C° 0 mm 2 mps 759 mmHg 67%
    17:00 +3°C° 0 mm 2 mps 759 mmHg 69%
    18:00 +2°C° 0 mm 2 mps 759 mmHg 72%
    19:00 +3°C° 0 mm 1 mps 760 mmHg 73%
    20:00 +3°C° 0 mm 1 mps 760 mmHg 74%
    21:00 +2°C° 0 mm 1 mps 760 mmHg 75%
    22:00 +2°C° 0 mm 1 mps 761 mmHg 75%
    23:00 +2°C° 0 mm 1 mps 761 mmHg 75%

    20 December, Wednesday

    Time Temperature Precipitation Wind Pressure Humidity
    00:00 +2°C° 0 mm 1 mps 761 mmHg 76%
    01:00 +2°C° 0 mm 1 mps 761 mmHg 76%
    02:00 +2°C° 0 mm 1 mps 761 mmHg 76%
    03:00 +2°C° 0 mm 1 mps 761 mmHg 76%
    04:00 +2°C° 0 mm 1 mps 762 mmHg 77%
    05:00 +2°C° 0 mm 1 mps 762 mmHg 77%
    06:00 +2°C° 0 mm 1 mps 762 mmHg 77%
    07:00 +1°C° 0 mm 2 mps 762 mmHg 77%
    08:00 +1°C° 0 mm 2 mps 762 mmHg 77%
    09:00 +2°C° 0 mm 2 mps 763 mmHg 76%
    10:00 +2°C° 0 mm 2 mps 763 mmHg 73%
    11:00 +3°C° 0 mm 2 mps 763 mmHg 70%
    12:00 +4°C° 0 mm 2 mps 763 mmHg 67%
    13:00 +4°C° 0 mm 2 mps 762 mmHg 67%
    14:00 +4°C° 0 mm 2 mps 762 mmHg 68%
    15:00 +4°C° 0 mm 3 mps 762 mmHg 68%
    16:00 +3°C° 0 mm 3 mps 762 mmHg 72%
    17:00 +3°C° 0 mm 3 mps 762 mmHg 75%
    18:00 +2°C° 0 mm 3 mps 762 mmHg 79%
    19:00 +2°C° 0 mm 3 mps 762 mmHg 82%
    20:00 +3°C° 0 mm 3 mps 762 mmHg 85%
    21:00 +3°C° 0 mm 3 mps 762 mmHg 88%
    22:00 +3°C° 0.1 mm 3 mps 762 mmHg 90%
    23:00 +3°C° 0.1 mm 3 mps 762 mmHg 92%

    21 December, Thursday

    Time Temperature Precipitation Wind Pressure Humidity
    00:00 +3°C° 0.1 mm 3 mps 762 mmHg 95%
    01:00 +4°C° 0.4 mm 3 mps 761 mmHg 95%
    02:00 +4°C° 0.4 mm 3 mps 761 mmHg 95%
    03:00 +4°C° 0.4 mm 4 mps 761 mmHg 95%
    04:00 +4°C° 0.8 mm 4 mps 760 mmHg 94%
    05:00 +4°C° 0.8 mm 4 mps 760 mmHg 94%
    06:00 +3°C° 0.8 mm 4 mps 760 mmHg 93%
    07:00 +3°C° 0.8 mm 4 mps 759 mmHg 92%
    08:00 +2°C° 0.8 mm 5 mps 759 mmHg 91%
    09:00 +2°C° 0.8 mm 5 mps 759 mmHg 91%
    10:00 +2°C° 0.5 mm 5 mps 758 mmHg 91%
    11:00 +2°C° 0.5 mm 5 mps 758 mmHg 91%
    12:00 +2°C° 0.5 mm 5 mps 758 mmHg 91%
    13:00 +3°C° 0.3 mm 5 mps 758 mmHg 90%
    14:00 +3°C° 0.3 mm 5 mps 758 mmHg 89%
    15:00 +3°C° 0.3 mm 5 mps 757 mmHg 87%
    16:00 +2°C° 0.1 mm 6 mps 758 mmHg 85%
    17:00 +2°C° 0.1 mm 6 mps 758 mmHg 83%
    18:00 +1°C° 0.1 mm 6 mps 758 mmHg 80%
    19:00 -1°C° 0 mm 6 mps 758 mmHg 79%
    20:00 -1°C° 0 mm 6 mps 759 mmHg 78%
    21:00 -1°C° 0 mm 6 mps 759 mmHg 77%
    22:00 -2°C° 0 mm 6 mps 759 mmHg 77%
    23:00 -2°C° 0 mm 6 mps 759 mmHg 77%

    22 December, Friday

    Time Temperature Precipitation Wind Pressure Humidity
    00:00 -3°C° 0 mm 6 mps 759 mmHg 77%
    01:00 -2°C° 0 mm 5 mps 759 mmHg 76%
    02:00 -4°C° 0 mm 5 mps 759 mmHg 75%
    03:00 -4°C° 0 mm 4 mps 759 mmHg 74%
    04:00 -4°C° 0 mm 4 mps 759 mmHg 74%
    05:00 -4°C° 0 mm 4 mps 759 mmHg 74%
    06:00 -4°C° 0 mm 4 mps 759 mmHg 74%
    07:00 -4°C° 0 mm 4 mps 759 mmHg 74%
    08:00 -4°C° 0 mm 4 mps 759 mmHg 74%
    09:00 -4°C° 0 mm 4 mps 759 mmHg 74%
    10:00 -4°C° 0 mm 4 mps 759 mmHg 72%
    11:00 -3°C° 0 mm 4 mps 759 mmHg 70%
    12:00 -3°C° 0 mm 4 mps 759 mmHg 68%
    13:00 -2°C° 0 mm 4 mps 758 mmHg 66%
    14:00 -2°C° 0 mm 4 mps 758 mmHg 65%
    15:00 -2°C° 0 mm 4 mps 758 mmHg 64%
    16:00 -2°C° 0 mm 4 mps 758 mmHg 65%
    17:00 -2°C° 0 mm 4 mps 758 mmHg 67%
    18:00 -2°C° 0 mm 4 mps 759 mmHg 68%
    19:00 -2°C° 0 mm 3 mps 759 mmHg 69%
    20:00 -2°C° 0 mm 3 mps 758 mmHg 71%
    21:00 -2°C° 0 mm 2 mps 758 mmHg 72%
    22:00 -2°C° 0 mm 3 mps 758 mmHg 73%
    23:00 -2°C° 0 mm 3 mps 758 mmHg 75%
    Show more